Regional Weather Roundup
Issued by NWS

Home | Current Version | Previous Version | Text Only | Print | Product List | Glossary On
Versions: 1 2 3 4 5 6 7 8 9 10 11 12 13 14 15 16 17 18 19 20 21 22 23 24 25 26 27 28 29 30 31 32 33 34 35 36 37 38 39 40 41 42 43 44 45 46 47 48 49 50
000
ASUS45 KCYS 310010
RWRWY

WYOMING REGIONAL WEATHER ROUNDUP
NATIONAL WEATHER SERVICE CHEYENNE WY
600 PM MDT SAT AUG 30 2014

NOTE:  "FAIR" INDICATES FEW OR NO CLOUDS BELOW 12,000 FEET
WITH NO SIGNIFICANT WEATHER AND/OR OBSTRUCTIONS TO VISIBILITY.

WYZ001-310100-
YELLOWSTONE NATIONAL PARK

CITY           SKY/WX    TMP DP  RH WIND       PRES   REMARKS
LK YELLOWSTONE   N/A     47  43  86 CALM      30.08S
6HR MIN TEMP:  40; 6HR MAX TEMP:  49; 6HR PCP:  0.42;

W YELLOWSTONE  NOT AVBL

$$
WYZ002>013-054>058-071-098>099-310100-
NORTHERN WYOMING

CITY           SKY/WX    TMP DP  RH WIND       PRES   REMARKS
JACKSON        CLOUDY    61  45  55 CALM      29.98F
CODY           CLOUDY    55  45  67 N7        29.90F
GREYBULL       CLOUDY    60  56  86 S5        29.86S
6HR MIN TEMP:  59; 6HR MAX TEMP:  83; 6HR PCP: TRACE;

WORLAND        CLOUDY    59  52  77 NE8       29.89R
6HR MIN TEMP:  59; 6HR MAX TEMP:  82; 6HR PCP:  0.01;

SHERIDAN       RAIN      59  54  83 VRB5      29.86R
6HR MIN TEMP:  58; 6HR MAX TEMP:  76; 6HR PCP:  0.07;

BUFFALO        TSTM      58  50  75 N21G33    29.89R
6HR MIN TEMP:  58; 6HR MAX TEMP:  74; 6HR PCP:  0.01;

GILLETTE       CLOUDY    73  51  46 N22G30    29.78R
6HR MIN TEMP:  73; 6HR MAX TEMP:  88;

HULETT         FAIR      75  54  46 MISG      29.74
NEWCASTLE      FAIR      81  37  21 MISG      29.70

$$
WYZ014>020-022>026-101>103-310100-
CENTRAL WYOMING

CITY           SKY/WX    TMP DP  RH WIND       PRES   REMARKS
BIG PINEY      PTSUNNY   65  40  39 SW12      30.01F
6HR MIN TEMP:  62; 6HR MAX TEMP:  70;

PINEDALE       CLOUDY    63  36  36 W9G28     30.03S
DUBOIS         CLOUDY    48  43  81 NW9G17    30.02R
LANDER         CLOUDY    73  37  27 S9        29.87S
6HR MIN TEMP:  67; 6HR MAX TEMP:  81;

RIVERTON       CLOUDY    68  35  29 S14       29.88R
6HR MIN TEMP:  68; 6HR MAX TEMP:  84;

CASPER         CLOUDY    74  36  25 W28G37    29.89R
6HR MIN TEMP:  74; 6HR MAX TEMP:  89;

DOUGLAS        CLOUDY    77  37  23 W21G29    29.83R
6HR MIN TEMP:  77; 6HR MAX TEMP:  92;


$$
WYZ021-027>030-104>119-310100-
SOUTHERN WYOMING

CITY           SKY/WX    TMP DP  RH WIND       PRES   REMARKS
EVANSTON       PTSUNNY   70  41  34 SW13G23   30.05F
6HR MIN TEMP:  58; 6HR MAX TEMP:  71; 6HR PCP: TRACE;

KEMMERER       PTCLDY    66  36  32 SW17G26   30.05F
FORT BRIDGER   FAIR      72  39  30 W21G29    30.07
ROCK SPRINGS   MOSUNNY   61  49  64 SE8       30.04F
6HR MIN TEMP:  53; 6HR MAX TEMP:  77; 6HR PCP:  0.01;

DIXON          MOCLDY    68  42  39 NW10G16   30.08F
RAWLINS        CLOUDY    62  44  51 W22G31    30.07R
6HR MIN TEMP:  60; 6HR MAX TEMP:  79; 6HR PCP:  0.04;

LARAMIE        CLOUDY    59  45  59 W7        30.09R
6HR MIN TEMP:  58; 6HR MAX TEMP:  78; 6HR PCP:  0.04;

CHEYENNE       CLOUDY    68  46  45 W25G37    30.04S
6HR MIN TEMP:  62; 6HR MAX TEMP:  83; 6HR PCP:  0.02;

TORRINGTON     LGT RAIN  77  48  35 SW20G33   29.80R
6HR MIN TEMP:  77; 6HR MAX TEMP:  91; 6HR PCP: TRACE;

PINE BLUFFS    FAIR      73  45  35 W17       29.97R

$$



USA.gov is the U.S. government's official web portal to all federal, state and local government web resources and services.